K6OUA-11 Weather Reports


time (UTC)temp
F
wind
direction
speed
knots
gust
knots
rain 1hr
in
rain 24hr
in
rain mn
in
humidity
%
barometer
mb
20210920053955 58 270 0.0 0.0 0.00 0.00 0.00 81 1006.0
20210920052750 58 270 0.0 0.0 0.00 0.00 0.00 80 1006.1
20210920052449 59 270 0.0 0.0 0.00 0.00 0.00 80 1006.2
20210920052150 59 270 0.0 0.0 0.00 0.00 0.00 80 1006.2
20210920051849 59 270 0.0 0.0 0.00 0.00 0.00 80 1006.2
20210920051547 59 270 0.0 0.0 0.00 0.00 0.00 80 1006.3
20210920051245 59 270 0.0 0.0 0.00 0.00 0.00 79 1006.3
20210920050945 59 270 0.0 0.0 0.00 0.00 0.00 79 1006.3
20210920050644 59 270 0.0 0.0 0.00 0.00 0.00 80 1006.4
20210920050041 60 270 0.0 0.0 0.00 0.00 0.00 79 1006.4
20210920045741 60 270 0.0 0.0 0.00 0.00 0.00 79 1006.4
20210920045137 60 270 0.0 0.0 0.00 0.00 0.00 79 1006.3
20210920044836 60 270 0.0 0.0 0.00 0.00 0.00 78 1006.4
20210920044536 61 270 0.0 0.0 0.00 0.00 0.00 79 1006.3
20210920043934 61 270 0.0 0.0 0.00 0.00 0.00 79 1006.2
20210920043632 61 270 0.0 0.0 0.00 0.00 0.00 79 1006.2
20210920043330 61 270 0.0 0.0 0.00 0.00 0.00 80 1006.2
20210920043029 61 270 0.0 0.0 0.00 0.00 0.00 81 1006.3
20210920042729 61 270 0.0 0.0 0.00 0.00 0.00 80 1006.3
20210920041825 61 270 0.0 0.0 0.00 0.00 0.00 79 1006.5
20210920041524 61 270 0.0 0.0 0.00 0.00 0.00 79 1006.5
20210920041224 61 270 0.0 0.0 0.00 0.00 0.00 79 1006.4
20210920040923 61 270 0.0 0.0 0.00 0.00 0.00 78 1006.4
20210920040622 61 270 0.0 0.0 0.00 0.00 0.00 78 1006.6
20210920040321 61 270 0.0 0.0 0.00 0.00 0.00 79 1006.4
20210920040019 61 270 0.0 0.0 0.00 0.00 0.00 78 1006.5
20210920035417 61 270 0.0 0.0 0.00 0.00 0.00 78 1006.3
20210920035115 61 270 0.0 0.0 0.00 0.00 0.00 77 1006.3
20210920034815 61 270 0.0 0.0 0.00 0.00 0.00 76 1006.3
20210920034514 61 270 0.0 0.0 0.00 0.00 0.00 76 1006.3
20210920033912 61 270 0.0 0.0 0.00 0.00 0.00 76 1006.1
20210920033611 61 270 0.0 0.0 0.00 0.00 0.00 76 1006.2
20210920033007 62 270 0.0 0.0 0.00 0.00 0.00 76 1006.1
20210920032751 62 270 0.0 0.0 0.00 0.00 0.00 75 1006.1
20210920032706 62 270 0.0 0.0 0.00 0.00 0.00 75 1006.1
20210920032405 62 270 0.0 0.0 0.00 0.00 0.00 75 1006.1
20210920032105 62 270 0.0 0.0 0.00 0.00 0.00 74 1006.1
20210920031554 62 270 0.0 0.0 0.00 0.00 0.00 73 1005.9
20210920031502 62 270 0.0 0.0 0.00 0.00 0.00 73 1005.9
20210920030900 62 270 0.0 0.0 0.00 0.00 0.00 72 1006.2
20210920030257 63 270 0.0 0.9 0.00 0.00 0.00 72 1006.1
20210920025958 63 270 0.0 0.9 0.00 0.00 0.00 71 1006.3
20210920025655 63 270 0.0 0.0 0.00 0.00 0.00 71 1006.2
20210920025356 63 270 0.0 0.0 0.00 0.00 0.00 71 1006.1
20210920025054 64 270 0.0 0.0 0.00 0.00 0.00 70 1006.4
20210920024752 64 270 0.0 0.0 0.00 0.00 0.00 70 1006.1
20210920024150 64 270 0.0 1.7 0.00 0.00 0.00 69 1006.1
20210920023549 65 270 0.0 0.0 0.00 0.00 0.00 68 1006.1
20210920022945 65 270 0.0 0.9 0.00 0.00 0.00 67 1006.3
20210920020839 68 270 0.0 0.9 0.00 0.00 0.00 63 1006.0
20210920020536 68 270 0.0 0.9 0.00 0.00 0.00 63 1006.1
20210920015929 69 270 1.7 1.7 0.00 0.00 0.00 62 1006.2
20210920015630 69 270 1.7 1.7 0.00 0.00 0.00 62 1006.1
20210920015027 70 270 0.9 1.7 0.00 0.00 0.00 61 1006.3
20210920014725 70 270 0.9 1.7 0.00 0.00 0.00 61 1006.3
20210920014425 70 270 0.9 1.7 0.00 0.00 0.00 61 1006.1
20210920013822 70 270 0.9 1.7 0.00 0.00 0.00 60 1006.2
20210920013520 71 270 1.7 1.7 0.00 0.00 0.00 60 1006.3
20210920012618 71 270 1.7 3.5 0.00 0.00 0.00 59 1006.3
20210920012015 72 270 1.7 2.6 0.00 0.00 0.00 59 1006.2
20210920011715 72 270 2.6 2.6 0.00 0.00 0.00 58 1006.3
20210920011113 72 292 2.6 6.1 0.00 0.00 0.00 58 1006.3
20210920010209 72 292 3.5 7.0 0.00 0.00 0.00 58 1006.4
20210920005306 73 292 5.2 5.2 0.00 0.00 0.00 57 1006.2
20210920004704 73 292 2.6 3.5 0.00 0.00 0.00 56 1006.2
20210920004401 73 292 3.5 5.2 0.00 0.00 0.00 56 1006.3
20210920003500 74 292 5.2 5.2 0.00 0.00 0.00 55 1006.4
20210920002856 75 292 5.2 8.7 0.00 0.00 0.00 54 1006.4
20210920001352 76 292 7.0 7.8 0.00 0.00 0.00 53 1006.3
20210920001050 76 270 3.5 6.1 0.00 0.00 0.00 53 1006.3
20210920000749 77 270 3.5 8.7 0.00 0.00 0.00 53 1006.3
20210920000447 77 270 3.5 7.0 0.00 0.00 0.00 53 1006.4
20210920000147 77 270 7.0 7.0 0.00 0.00 0.00 52 1006.3
20210919235846 77 270 0.9 5.2 0.00 0.00 0.00 52 1006.5
20210919235545 77 270 4.3 4.3 0.00 0.00 0.00 52 1006.4
20210919235243 77 270 3.5 4.3 0.00 0.00 0.00 52 1006.3
20210919234943 77 270 4.3 5.2 0.00 0.00 0.00 53 1006.5
20210919234641 77 270 4.3 7.0 0.00 0.00 0.00 52 1006.4
20210919233136 78 270 5.2 6.1 0.00 0.00 0.00 51 1006.6
20210919232538 78 270 8.7 8.7 0.00 0.00 0.00 51 1006.6
20210919231834 78 270 4.3 8.7 0.00 0.00 0.00 50 1006.6
20210919231631 78 270 4.3 8.7 0.00 0.00 0.00 50 1006.6
20210919231627 78 270 5.2 6.1 0.00 0.00 0.00 50 1006.6
20210919231028 78 270 5.2 6.1 0.00 0.00 0.00 50 1006.6
20210919230728 78 270 4.3 6.1 0.00 0.00 0.00 50 1006.6
20210919230425 78 270 4.3 6.1 0.00 0.00 0.00 50 1006.6
20210919225823 79 270 9.6 10.4 0.00 0.00 0.00 49 1006.8
20210919225523 79 270 4.3 11.3 0.00 0.00 0.00 49 1007.0
20210919225222 79 270 4.3 7.0 0.00 0.00 0.00 48 1006.9
20210919224921 79 270 4.3 7.0 0.00 0.00 0.00 47 1007.0
20210919224620 79 270 5.2 7.8 0.00 0.00 0.00 47 1007.0
20210919224016 80 270 5.2 7.8 0.00 0.00 0.00 47 1007.0
20210919223716 80 270 7.0 7.8 0.00 0.00 0.00 47 1006.9
20210919222210 81 270 3.5 6.1 0.00 0.00 0.00 46 1007.1
20210919220405 81 270 5.2 5.2 0.00 0.00 0.00 45 1007.1
20210919220103 81 270 4.3 6.1 0.00 0.00 0.00 46 1007.1
20210919215801 81 308 4.3 5.2 0.00 0.00 0.00 46 1007.2
20210919213653 81 292 4.3 7.0 0.00 0.00 0.00 47 1007.4
20210919213051 81 315 4.3 5.2 0.00 0.00 0.00 47 1007.6
20210919212450 81 292 6.1 6.1 0.00 0.00 0.00 47 1007.5
20210919212149 81 292 3.5 7.0 0.00 0.00 0.00 47 1007.6
20210919211846 81 315 5.2 7.0 0.00 0.00 0.00 48 1007.6
20210919210644 80 308 3.5 7.8 0.00 0.00 0.00 48 1007.9
20210919210342 80 315 6.1 7.8 0.00 0.00 0.00 49 1007.8
20210919210042 80 315 7.8 7.8 0.00 0.00 0.00 48 1007.8
20210919205739 80 315 5.2 7.8 0.00 0.00 0.00 49 1007.9
20210919205138 80 315 3.5 7.0 0.00 0.00 0.00 49 1008.0
20210919204930 80 297 2.6 7.0 0.00 0.00 0.00 49 1008.0
20210919204835 80 297 2.6 7.0 0.00 0.00 0.00 49 1008.0
20210919204534 81 308 4.3 6.1 0.00 0.00 0.00 49 1007.9
20210919204234 80 180 3.5 5.2 0.00 0.00 0.00 49 1008.1
20210919204039 80 315 2.6 5.2 0.00 0.00 0.00 50 1008.1
20210919204012 80 180 3.5 5.2 0.00 0.00 0.00 49 1008.1
20210919203932 80 180 3.5 5.2 0.00 0.00 0.00 49 1008.1
20210919203631 80 315 2.6 5.2 0.00 0.00 0.00 50 1008.1
20210919203333 80 315 5.2 7.8 0.00 0.00 0.00 49 1008.2
20210919203029 80 315 5.2 7.8 0.00 0.00 0.00 49 1008.3
20210919202729 80 315 4.3 7.8 0.00 0.00 0.00 49 1008.2
20210919202427 80 315 2.6 7.0 0.00 0.00 0.00 50 1008.3
20210919201525 80 315 3.5 7.0 0.00 0.00 0.00 49 1008.4
20210919201223 80 315 4.3 6.1 0.00 0.00 0.00 49 1008.3
20210919200923 80 180 5.2 5.2 0.00 0.00 0.00 49 1008.4
20210919200320 80 180 4.3 6.1 0.00 0.00 0.00 48 1008.3
20210919200019 80 180 4.3 4.3 0.00 0.00 0.00 49 1008.4
20210919195717 80 180 4.3 6.1 0.00 0.00 0.00 48 1008.5
20210919195417 81 180 4.3 5.2 0.00 0.00 0.00 48 1008.5
20210919195115 81 180 6.1 7.0 0.00 0.00 0.00 48 1008.5
20210919194213 81 180 2.6 5.2 0.00 0.00 0.00 47 1008.6
20210919193309 81 180 3.5 5.2 0.00 0.00 0.00 47 1008.6
20210919193007 81 180 5.2 7.0 0.00 0.00 0.00 47 1008.7
20210919192754 81 180 4.3 7.0 0.00 0.00 0.00 47 1008.7
20210919192707 81 180 4.3 7.0 0.00 0.00 0.00 47 1008.7
20210919192406 81 180 3.5 5.2 0.00 0.00 0.00 47 1008.6
20210919192103 81 180 0.9 7.0 0.00 0.00 0.00 48 1008.8
20210919191204 81 180 0.0 3.5 0.00 0.00 0.00 49 1008.8
20210919190257 80 180 1.7 4.3 0.00 0.00 0.00 50 1009.0
20210919185957 80 180 2.6 4.3 0.00 0.00 0.00 51 1008.8
20210919185656 79 180 0.9 3.5 0.00 0.00 0.00 51 1008.9
20210919185354 79 315 1.7 5.2 0.00 0.00 0.00 51 1009.0
20210919185054 78 315 0.9 5.2 0.00 0.00 0.00 51 1009.2
20210919184753 78 315 0.0 6.1 0.00 0.00 0.00 52 1009.1
20210919184452 78 315 2.6 5.2 0.00 0.00 0.00 52 1009.1
20210919183849 78 270 6.1 6.1 0.00 0.00 0.00 52 1009.1
20210919183547 78 315 2.6 7.0 0.00 0.00 0.00 52 1009.1
20210919183248 78 315 3.5 8.7 0.00 0.00 0.00 52 1009.1
20210919182731 78 180 5.2 6.1 0.00 0.00 0.00 52 1009.1
20210919182644 78 180 5.2 6.1 0.00 0.00 0.00 52 1009.1
20210919182344 78 180 3.5 7.0 0.00 0.00 0.00 52 1009.1
20210919182041 78 180 5.2 6.1 0.00 0.00 0.00 53 1009.2
20210919181439 77 180 2.6 4.3 0.00 0.00 0.00 53 1009.3
20210919180838 76 180 3.5 7.8 0.00 0.00 0.00 53 1009.4
20210919180618 77 180 5.2 7.8 0.00 0.00 0.00 54 1009.4
20210919180537 77 180 5.2 7.8 0.00 0.00 0.00 54 1009.4
20210919175634 78 180 3.5 8.7 0.00 0.00 0.00 52 1009.3
20210919175423 78 180 6.1 6.1 0.00 0.00 0.00 53 1009.4
20210919175331 78 180 6.1 6.1 0.00 0.00 0.00 53 1009.4
20210919175032 78 180 3.5 7.0 0.00 0.00 0.00 53 1009.5
20210919174729 78 180 4.3 5.2 0.00 0.00 0.00 54 1009.5
20210919174430 79 180 1.7 3.5 0.00 0.00 0.00 54 1009.4
20210919174222 79 180 2.6 3.5 0.00 0.00 0.00 54 1009.4
20210919174128 79 180 2.6 3.5 0.00 0.00 0.00 54 1009.4
20210919173826 79 180 0.9 3.5 0.00 0.00 0.00 55 1009.4
20210919173225 78 180 1.7 2.6 0.00 0.00 0.00 56 1009.5
20210919172923 78 180 2.6 2.6 0.00 0.00 0.00 56 1009.6
20210919172020 77 180 0.9 2.6 0.00 0.00 0.00 58 1009.5
20210919171118 76 180 1.7 2.6 0.00 0.00 0.00 58 1009.6
20210919170815 76 180 1.7 2.6 0.00 0.00 0.00 58 1009.6
20210919165913 76 180 0.9 5.2 0.00 0.00 0.00 58 1009.7
20210919164408 75 180 0.0 4.3 0.00 0.00 0.00 60 1009.6
20210919164105 75 180 3.5 5.2 0.00 0.00 0.00 61 1009.6
20210919163806 75 180 4.3 4.3 0.00 0.00 0.00 63 1009.7
20210919163503 75 180 0.0 1.7 0.00 0.00 0.00 64 1009.6
20210919163203 75 180 0.9 1.7 0.00 0.00 0.00 65 1009.5
20210919161949 73 180 0.0 0.0 0.00 0.00 0.00 68 1009.7
20210919161647 72 180 0.0 0.0 0.00 0.00 0.00 69 1009.7
20210919161347 72 180 0.0 1.7 0.00 0.00 0.00 70 1009.8
20210919161044 72 180 0.0 0.0 0.00 0.00 0.00 70 1009.7
20210919160744 71 180 0.0 0.0 0.00 0.00 0.00 71 1009.6
20210919160443 71 180 0.0 0.0 0.00 0.00 0.00 71 1009.7
20210919160232 70 180 0.0 0.9 0.00 0.00 0.00 73 1009.7
20210919160142 70 180 0.0 0.9 0.00 0.00 0.00 73 1009.7
20210919155539 69 180 0.0 0.9 0.00 0.00 0.00 74 1009.8
20210919155322 69 180 0.9 0.9 0.00 0.00 0.00 76 1009.7
20210919155237 69 180 0.9 0.9 0.00 0.00 0.00 76 1009.7
20210919154938 68 180 0.0 0.0 0.00 0.00 0.00 76 1009.7
20210919154635 67 180 0.0 0.0 0.00 0.00 0.00 77 1009.7
20210919154336 66 180 0.0 0.0 0.00 0.00 0.00 78 1009.8
20210919153431 65 180 0.0 0.0 0.00 0.00 0.00 79 1009.6
20210919152532 63 180 0.0 0.0 0.00 0.00 0.00 82 1009.8
20210919152228 62 180 0.0 0.0 0.00 0.00 0.00 83 1009.7
20210919151927 62 180 0.0 0.0 0.00 0.00 0.00 84 1009.7
20210919151625 61 180 0.0 0.0 0.00 0.00 0.00 84 1009.8
20210919151324 60 180 0.0 0.0 0.00 0.00 0.00 84 1009.7
20210919150722 59 180 0.0 0.0 0.00 0.00 0.00 86 1009.6
20210919150209 58 180 0.0 0.0 0.00 0.00 0.00 87 1009.6
20210919150119 58 180 0.0 0.0 0.00 0.00 0.00 87 1009.6
20210919145818 58 180 0.0 0.0 0.00 0.00 0.00 88 1009.7
20210919145518 57 180 0.0 0.0 0.00 0.00 0.00 88 1009.8
20210919145215 57 180 0.0 0.0 0.00 0.00 0.00 88 1009.7
20210919144914 56 180 0.0 0.0 0.00 0.00 0.00 89 1009.7
20210919144613 56 180 0.0 0.0 0.00 0.00 0.00 90 1009.5
20210919144059 55 180 0.0 0.0 0.00 0.00 0.00 91 1009.4
20210919144012 55 180 0.0 0.0 0.00 0.00 0.00 91 1009.4
20210919143408 54 180 0.0 0.0 0.00 0.00 0.00 92 1009.6
20210919141904 52 180 0.0 0.0 0.00 0.00 0.00 93 1009.3
20210919141603 51 180 0.0 0.0 0.00 0.00 0.00 93 1009.5
20210919141302 51 180 0.0 0.0 0.00 0.00 0.00 93 1009.2
20210919141000 51 180 0.0 0.0 0.00 0.00 0.00 93 1009.2
20210919140700 50 180 0.0 0.0 0.00 0.00 0.00 93 1009.2
20210919140357 50 180 0.0 0.0 0.00 0.00 0.00 92 1009.2
20210919140056 50 180 0.0 0.0 0.00 0.00 0.00 92 1009.0
20210919135757 50 180 0.0 0.0 0.00 0.00 0.00 92 1009.0
20210919135456 50 180 0.0 0.0 0.00 0.00 0.00 91 1008.9
20210919134551 50 180 0.0 0.0 0.00 0.00 0.00 91 1008.8
20210919134251 50 180 0.0 0.0 0.00 0.00 0.00 91 1008.9
20210919133949 51 180 0.0 0.0 0.00 0.00 0.00 91 1008.7
20210919133647 51 180 0.0 0.0 0.00 0.00 0.00 91 1008.7
20210919133348 51 180 0.0 0.0 0.00 0.00 0.00 91 1008.8
20210919133046 51 180 0.0 0.0 0.00 0.00 0.00 91 1008.9
20210919132745 51 180 0.0 0.0 0.00 0.00 0.00 92 1008.8
20210919132142 51 180 0.0 0.0 0.00 0.00 0.00 92 1008.8
20210919131841 51 180 0.0 0.0 0.00 0.00 0.00 92 1008.8
20210919131541 51 180 0.0 0.0 0.00 0.00 0.00 93 1008.8
20210919131239 51 180 0.0 0.0 0.00 0.00 0.00 92 1008.8
20210919130938 51 180 0.0 0.0 0.00 0.00 0.00 93 1008.6
20210919125734 50 180 0.0 0.0 0.00 0.00 0.00 91 1008.4
20210919125131 50 180 0.0 0.0 0.00 0.00 0.00 91 1008.4
20210919124831 50 180 0.0 0.0 0.00 0.00 0.00 91 1008.5
20210919124529 51 180 0.0 0.0 0.00 0.00 0.00 91 1008.5
20210919124229 51 180 0.0 0.0 0.00 0.00 0.00 91 1008.6
20210919123926 51 180 0.0 0.0 0.00 0.00 0.00 91 1008.6
20210919123625 51 180 0.0 0.0 0.00 0.00 0.00 91 1008.8
20210919123325 51 180 0.0 0.0 0.00 0.00 0.00 91 1008.6
20210919123023 51 180 0.0 0.0 0.00 0.00 0.00 91 1008.7
20210919122421 51 180 0.0 0.0 0.00 0.00 0.00 92 1008.6
20210919120616 51 180 0.0 0.0 0.00 0.00 0.00 92 1008.7
20210919120014 51 180 0.0 0.0 0.00 0.00 0.00 91 1008.7
20210919115713 51 180 0.0 0.0 0.00 0.00 0.00 91 1008.6
20210919115411 51 180 0.0 0.0 0.00 0.00 0.00 91 1008.6
20210919115111 51 180 0.0 0.0 0.00 0.00 0.00 91 1008.6
20210919114809 51 180 0.0 0.0 0.00 0.00 0.00 91 1008.5
20210919114205 51 180 0.0 0.0 0.00 0.00 0.00 91 1008.4
20210919113907 51 180 0.0 0.0 0.00 0.00 0.00 91 1008.5
20210919113603 51 180 0.0 0.0 0.00 0.00 0.00 91 1008.5
20210919113001 51 180 0.0 0.0 0.00 0.00 0.00 91 1008.5
20210919112054 52 180 0.0 0.0 0.00 0.00 0.00 91 1008.3
20210919111450 52 180 0.0 0.0 0.00 0.00 0.00 91 1008.1
20210919111150 52 180 0.0 0.0 0.00 0.00 0.00 91 1008.2
20210919110849 52 180 0.0 0.0 0.00 0.00 0.00 91 1008.2
20210919110548 52 180 0.0 0.0 0.00 0.00 0.00 91 1008.2
20210919105945 52 180 0.0 0.0 0.00 0.00 0.00 92 1008.3
20210919105645 52 180 0.0 0.0 0.00 0.00 0.00 91 1008.1
20210919105343 52 180 0.0 0.0 0.00 0.00 0.00 91 1008.3
20210919105042 51 180 0.0 0.0 0.00 0.00 0.00 91 1008.3
20210919104440 51 180 0.0 0.0 0.00 0.00 0.00 91 1008.5
20210919104139 51 180 0.0 0.0 0.00 0.00 0.00 91 1008.4
20210919103536 51 135 0.0 0.0 0.00 0.00 0.00 91 1008.5
20210919102935 52 180 0.0 0.0 0.00 0.00 0.00 91 1008.6
20210919102327 52 180 0.0 0.0 0.00 0.00 0.00 90 1008.6
20210919102026 52 180 0.0 0.0 0.00 0.00 0.00 90 1008.6
20210919101725 52 180 0.0 0.0 0.00 0.00 0.00 90 1008.7
20210919101425 52 180 0.0 0.0 0.00 0.00 0.00 89 1008.7
20210919101122 52 180 0.0 0.0 0.00 0.00 0.00 90 1008.7
20210919100822 52 180 0.0 0.0 0.00 0.00 0.00 90 1008.8
20210919100522 52 180 0.0 0.0 0.00 0.00 0.00 90 1008.7
20210919094713 53 112 0.0 0.0 0.00 0.00 0.00 91 1008.8
20210919094414 53 90 0.0 0.0 0.00 0.00 0.00 91 1008.7
20210919093208 53 90 0.0 0.0 0.00 0.00 0.00 91 1008.8
20210919092607 53 90 0.0 0.0 0.00 0.00 0.00 91 1008.9
20210919092005 53 90 0.0 0.0 0.00 0.00 0.00 91 1008.9
20210919091402 53 90 0.0 0.0 0.00 0.00 0.00 91 1009.0
20210919090850 53 90 0.0 0.0 0.00 0.00 0.00 91 1009.1
20210919090759 53 90 0.0 0.0 0.00 0.00 0.00 91 1009.1
20210919090158 52 90 0.0 0.0 0.00 0.00 0.00 91 1009.0
20210919085555 52 270 0.0 0.0 0.00 0.00 0.00 92 1009.0
20210919085255 52 270 0.0 0.0 0.00 0.00 0.00 91 1009.0
20210919084352 52 270 0.0 0.0 0.00 0.00 0.00 91 1009.0
20210919083447 52 270 0.0 0.0 0.00 0.00 0.00 91 1009.1
20210919083146 52 270 0.0 0.0 0.00 0.00 0.00 91 1009.2
20210919082845 52 270 0.0 0.0 0.00 0.00 0.00 91 1009.2
20210919082545 52 270 0.0 0.0 0.00 0.00 0.00 91 1009.3
20210919082244 51 270 0.0 0.0 0.00 0.00 0.00 91 1009.2
20210919081640 52 310 0.0 0.0 0.00 0.00 0.00 92 1009.5
20210919081341 51 312 0.0 0.0 0.00 0.00 0.00 91 1009.5
20210919080830 51 312 0.0 0.0 0.00 0.00 0.00 91 1009.4
20210919080738 51 312 0.0 0.0 0.00 0.00 0.00 91 1009.4
20210919075835 51 315 0.0 0.0 0.00 0.00 0.00 90 1009.4
20210919075233 51 315 0.0 0.9 0.00 0.00 0.00 90 1009.3
20210919072220 51 297 0.0 0.0 0.00 0.00 0.00 89 1009.6
20210919071919 51 315 0.0 0.0 0.00 0.00 0.00 89 1009.6
20210919071619 51 308 0.0 0.0 0.00 0.00 0.00 88 1009.7
20210919071017 52 306 0.0 0.0 0.00 0.00 0.00 88 1009.7
20210919070717 52 294 0.0 0.0 0.00 0.00 0.00 88 1009.5
20210919070414 52 315 0.0 0.0 0.00 0.00 0.00 88 1009.6
20210919065209 52 315 0.0 0.0 0.00 0.00 0.00 87 1009.5
20210919064909 52 315 0.0 0.0 0.00 0.00 0.00 88 1009.6
20210919064307 52 315 0.0 0.0 0.00 0.00 0.00 88 1009.6
20210919064005 52 315 0.0 0.0 0.00 0.00 0.00 88 1009.6
20210919063704 52 315 0.0 0.0 0.00 0.00 0.00 88 1009.6
20210919063403 52 315 0.0 0.0 0.00 0.00 0.00 88 1009.8
20210919063103 52 315 0.0 0.0 0.00 0.00 0.00 87 1009.7
20210919062459 52 315 0.0 0.0 0.00 0.00 0.00 87 1009.8
20210919062159 52 315 0.0 0.0 0.00 0.00 0.00 88 1009.9
20210919061858 52 315 0.0 0.0 0.00 0.00 0.00 88 1009.8
20210919061557 52 315 0.0 0.0 0.00 0.00 0.00 87 1009.8
20210919061256 52 310 0.0 0.0 0.00 0.00 0.00 86 1009.9
20210919060353 52 315 0.0 0.0 0.00 0.00 0.00 86 1009.8
20210919055450 53 315 0.0 0.0 0.00 0.00 0.00 86 1009.8